Погода в Соддере

Россия / Республика Карелия     61°48′20″N   32°50′53″E
темп.,
°C
ветер,
м/с
пор.,
м/с
влажн.,
%
обл.,
%
осадки,
мм/ч
давл.,
гПа
погр.,
м
2 марта, вт
вт200:00+1зсз5128797 0.2 10041013
03:00−1зсз4148779 0.2 1005676
06:00−2зсз414884 0.0 1004667
09:00−3сз412883 0.0 1006633
12:000сз5108379 0.0 10071225
15:000ссз5126990 0.2 10101677
18:00−4сз313788 0.0 1012710
21:00−6зсз310854 0.0 1014253
3 марта, ср
ср300:00−6з39930 0.0 1013234
03:00−5з311947 0.0 1013399
06:00−4зсз4129159 0.0 1010505
09:00−4з4119161 0.0 1010451
12:00−2з5109138 0.0 1007554
15:00−1з498969 0.0 1005669
18:00−1зюз41194100 0.1 1001823
21:00−1зсз51280100 0.8 999994
4 марта, чт
чт400:00−5сз5138934 0.0 998638
03:00−5сз4119364 0.1 999447
06:00−9сз289686 0.0 1000221
09:00−8сз379491 0.1 1000286
12:00−6ссз258999 0.1 1000461
15:00−5с248899 0.4 1001527
18:00−6ссз2393100 0.1 100193
21:00−7сз2796100 0.2 1003288
5 марта, пт
пт500:00−11сз249570 0.0 100386
03:00−10ссз279474 0.1 1005280
06:00−11с2695100 0.1 1006161
09:00−12с268888 0.1 1008261
12:00−9с3584100 0.1 1010765
15:00−9с3577100 0.1 1012974
18:00−12ссз228995 0.0 101347
21:00−14зсз229380 0.0 101420
6 марта, сб
сб600:00−15з229428 0.0 101533
03:00−15зюз239713 0.0 101467
06:00−13зюз389674 0.0 1013218
09:00−12зюз399685 0.0 1011290
12:00−6юз5108076 0.0 1009772
15:00−6ююз6118488 0.1 10031096
18:00−6ююз61393100 1.3 9971168
21:00−6ююз61393100 2.7 991872